User: anonymous   Login
Location: Unspecified
(0.0000°N, 0.0000°E)
Time: 16:47:39
(UTC+02:00)
Language:

Cosmos 1703 - Orbit

View from above orbital plane
View from above orbital plane
View from above satellite
View from above satellite

Ground track
Ground track

The orbit data is extracted from the following two-line orbital elements,

1 16262U 85108A   17115.88084828 +.00000821 +00000-0 +48231-4 0  9993
2 16262 082.4749 301.3196 0013840 094.4396 265.8415 15.10285152710747
Epoch (UTC): 25 April 2017 21:08:25
Eccentricity: 0.0013840
inclination: 82.4749°
perigee height: 526 km
apogee height: 545 km
right ascension of ascending node: 301.3196°
argument of perigee: 94.4396°
revolutions per day: 15.10285152
mean anomaly at epoch: 265.8415°
orbit number at epoch: 71074

The dashed part of the orbit path shows where the satellite is in the earth's shadow,  

DLR